Location: Long Geng
(2.6167°N, 114.1333°E)
Time: 06:45:32
(UTC+00:00)

Landsat 5 - Pass Details

Date: 14 May 2021
Orbit: 527 x 654 km, 98.2° (Epoch: 13 June)

Event Time Altitude Azimuth Distance (km) Brightness Sun altitude
Rises 21:33:07 0° 171° (S) 2,973 6.9 -10.2°
Reaches altitude 10° 21:35:21 10° 172° (S) 2,058 6.1 -9.7°
Maximum altitude 21:39:51 76° 258° (WSW) 668 3.6 -8.6°
Drops below altitude 10° 21:44:15 10° 344° (NNW) 2,016 6.2 -7.6°
Sets 21:46:25 0° 345° (NNW) 2,906 7.1 -7.0°
